Latest Coastal Weather Observations for Wynyard

IDT60701

Issued at 1:15 am EDT Friday 24 October 2014 (issued every 10 minutes, with the page automatically refreshed every 10 minutes)

About coastal observations | Map of coastal stations | Coastal observations for TAS | Marine services | Other Formats
Station Details ID: 091107 Name: WYNYARD AIRPORT Lat: -41.00 Lon: 145.73 Height: 12.0 m
Data from the previous 72 hours. | See also: Recent months at Wynyard
Date/Time
EDT
Temp

°C
Wind Pressure Rain
since 9am
mm
Weather Cloud Vis
km
Sea
Height
m
Swell
Dir
 
Speed
knots
Gust
knots
hPa Trend Height
m
Period
s
Dir
24/01:00am 12.4 E 17 32 1022.0 - 0.0 - Cloudy 10 - - - -
24/12:32am 12.5 E 16 28 1022.4 - 0.0 - Partly cloudy 9 - - - -
24/12:30am 12.5 E 16 24 1022.5 - 0.0 - Partly cloudy 9 - - - -
24/12:00am 12.2 ENE 17 27 1022.7 - 0.0 - Mostly clear 9 - - - -
 
Date/Time
EDT
Temp

°C
Wind Pressure Rain
since 9am
mm
Weather Cloud Vis
km
Sea
Height
m
Swell
Dir
 
Speed
knots
Gust
knots
hPa Trend Height
m
Period
s
Dir
23/11:31pm 12.2 ENE 17 28 1023.0 - 0.0 - - 8 - - - -
23/11:30pm 12.3 ENE 17 26 1023.0 - 0.0 - - 8 - - - -
23/11:00pm 12.4 ENE 19 29 1023.2 - 0.0 - Partly cloudy 8 - - - -
23/10:46pm 12.5 ENE 15 25 1023.3 - 0.0 - Partly cloudy 8 - - - -
23/10:30pm 12.4 ENE 12 20 1023.4 - 0.0 - Partly cloudy 8 - - - -
23/10:00pm 12.7 E 11 17 1023.6 - 0.0 - Cloudy 8 - - - -
23/09:30pm 12.9 ENE 11 19 1023.4 - 0.0 - Cloudy 9 - - - -
23/09:00pm 12.6 E 9 12 1023.1 - 0.0 - Cloudy 8 - - - -
23/08:30pm 12.7 ENE 9 14 1022.9 - 0.0 - Cloudy 9 - - - -
23/08:00pm 12.7 E 6 8 1022.9 - 0.0 - Partly cloudy 9 - - - -
23/07:30pm 13.0 E 7 11 1022.7 - 0.0 - Partly cloudy 9 - - - -
23/07:00pm 13.9 ENE 7 11 1022.5 - 0.0 - Partly cloudy 10 - - - -
23/06:30pm 14.5 E 7 9 1022.4 - 0.0 - - 10 - - - -
23/06:00pm 14.8 E 7 10 1022.4 - 0.0 - - 10 - - - -
23/05:30pm 15.1 E 7 12 1022.5 - 0.0 - - 10 - - - -
23/05:00pm 15.1 ENE 9 11 1022.5 - 0.0 - - 10 - - - -
23/04:30pm 15.7 NE 10 13 1022.4 - 0.0 - - 10 - - - -
23/04:00pm 15.7 NE 10 13 1022.5 - 0.0 - - 10 - - - -
23/03:30pm 15.4 NE 9 14 1022.6 - 0.0 - - 10 - - - -
23/03:00pm 16.1 NE 10 13 1022.7 - 0.0 - - 10 - - - -
23/02:30pm 16.1 NNE 11 14 1022.8 - 0.0 - - 10 - - - -
23/02:00pm 15.4 NNE 13 16 1022.7 - 0.0 - - 10 - - - -
23/01:30pm 16.5 NE 10 13 1022.7 - 0.0 - - 10 - - - -
23/01:00pm 16.4 NE 10 13 1022.7 - 0.0 - Partly cloudy 10 - - - -
23/12:30pm 16.6 NNE 10 12 1022.7 - 0.0 - - 10 - - - -
23/12:00pm 16.8 ENE 10 13 1022.7 - 0.0 - - 10 - - - -
23/11:30am 16.1 ENE 13 18 1022.7 - 0.0 - - 10 - - - -
23/11:00am 16.5 ENE 11 16 1022.7 - 0.0 - - 10 - - - -
23/10:30am 16.0 ENE 10 17 1022.8 - 0.0 - Partly cloudy 10 - - - -
23/10:00am 15.6 ENE 9 15 1022.7 - 0.0 - Cloudy 10 - - - -
23/09:30am 14.8 ENE 8 13 1022.4 - 0.0 - Cloudy 10 - - - -
23/09:00am 15.5 ENE 7 11 1021.8 - 0.0 - Mostly cloudy 10 - - - -
23/08:30am 15.5 ESE 7 11 1021.4 - 0.0 - - 10 - - - -
23/08:00am 14.8 E 7 10 1021.3 - 0.0 - Partly cloudy 10 - - - -
23/07:30am 11.3 SSE 1 4 1021.0 - 0.0 - - 10 - - - -
23/07:00am 8.4 SSE 1 4 1020.6 - 0.0 - - 10 - - - -
23/06:30am 7.1 SW 3 5 1020.0 - 0.0 - - 8 - - - -
23/06:00am 7.8 WNW 3 4 1019.5 - 0.0 - - 10 - - - -
23/05:30am 8.2 SSW 2 4 1019.0 - 0.0 - - 9 - - - -
23/05:00am 9.0 CALM 0 0 1018.6 - 0.0 - - 10 - - - -
23/04:30am 8.7 WSW 3 4 1017.9 - 0.0 - - 10 - - - -
23/04:00am 9.1 SW 3 4 1017.6 - 0.0 - - 10 - - - -
23/03:30am 11.0 E 1 3 1017.4 - 0.0 - - 10 - - - -
23/03:00am 11.4 SW 4 5 1017.3 - 0.0 - - 10 - - - -
23/02:30am 12.9 SSE 4 7 1017.1 - 0.0 - - 10 - - - -
23/02:00am 14.6 SSE 1 4 1016.9 - 0.0 - - 10 - - - -
23/01:30am 15.2 S 8 13 1016.9 - 0.0 - - 10 - - - -
23/01:00am 12.7 SSW 3 5 1016.7 - 0.0 - - 10 - - - -
23/12:30am 11.5 WSW 6 8 1016.8 - 0.0 - - 10 - - - -
23/12:00am 10.3 W 5 7 1017.0 - 0.0 - - 10 - - - -
 
Date/Time
EDT
Temp

°C
Wind Pressure Rain
since 9am
mm
Weather Cloud Vis
km
Sea
Height
m
Swell
Dir
 
Speed
knots
Gust
knots
hPa Trend Height
m
Period
s
Dir
22/11:30pm 10.4 W 5 7 1017.1 - 0.0 - - 10 - - - -
22/11:00pm 9.9 WSW 6 8 1017.0 - 0.0 - - 10 - - - -
22/10:30pm 10.1 WSW 6 7 1016.8 - 0.0 - - 10 - - - -
22/10:00pm 9.8 SW 4 6 1016.5 - 0.0 - - 10 - - - -
22/09:30pm 10.5 WSW 5 6 1016.6 - 0.0 - - 10 - - - -
22/09:00pm 12.1 WSW 3 4 1016.7 - 0.0 - Mostly clear 10 - - - -
22/08:30pm 12.9 SW 4 5 1016.2 - 0.0 - - 10 - - - -
22/08:00pm 13.4 SSW 3 5 1015.9 - 0.0 - - 10 - - - -
22/07:30pm 14.9 N 3 6 1016.1 - 0.0 - Partly cloudy 10 - - - -
22/07:00pm 14.9 WNW 6 11 1015.7 - 0.0 - Partly cloudy 10 - - - -
22/06:30pm 14.9 E 4 7 1015.5 - 0.0 - Partly cloudy 10 - - - -
22/06:00pm 14.8 ENE 6 8 1015.3 - 0.0 - Cloudy 10 - - - -
22/05:30pm 15.3 NW 3 5 1016.1 - 0.0 - Partly cloudy 10 - - - -
22/05:00pm 15.2 ENE 5 8 1016.7 - 0.0 - Partly cloudy 10 - - - -
22/04:30pm 15.6 E 3 5 1016.8 - 0.0 - - 10 - - - -
22/04:00pm 16.0 ENE 5 7 1016.8 - 0.0 - Partly cloudy 10 - - - -
22/03:30pm 15.6 E 5 8 1017.0 - 0.0 - Partly cloudy 10 - - - -
22/03:00pm 15.9 ENE 7 10 1017.0 - 0.0 - Cloudy 10 - - - -
22/02:30pm 16.5 ENE 9 13 1017.4 - 0.0 - - 10 - - - -
22/02:00pm 16.3 E 10 14 1017.8 - 0.0 - - 10 - - - -
22/01:30pm 16.3 ENE 9 13 1018.1 - 0.0 - - 10 - - - -
22/01:00pm 16.5 E 8 11 1018.4 - 0.0 - - 10 - - - -
22/12:30pm 16.4 E 9 15 1019.0 - 0.0 - Partly cloudy 10 - - - -
22/12:00pm 16.5 SE 10 13 1019.9 - 0.0 - Partly cloudy 10 - - - -
22/11:30am 16.0 E 11 15 1020.6 - 0.0 - Cloudy 10 - - - -
22/11:00am 16.8 E 10 16 1020.8 - 0.0 - Cloudy 10 - - - -
22/10:30am 16.5 E 10 15 1021.1 - 0.0 - Cloudy 10 - - - -
22/10:00am 15.9 E 10 16 1021.6 - 0.0 - Cloudy 10 - - - -
22/09:30am 15.4 E 9 15 1021.6 - 0.0 - Cloudy 10 - - - -
22/09:00am 15.1 ESE 11 14 1021.7 - 0.0 - Cloudy 10 - - - -
22/08:30am 14.5 ESE 12 17 1021.8 - 0.0 - Cloudy 10 - - - -
22/08:00am 14.0 ESE 12 16 1022.0 - 0.0 - Cloudy 10 - - - -
22/07:30am 13.4 SE 10 13 1022.4 - 0.0 - Cloudy 10 - - - -
22/07:00am 12.9 ESE 11 17 1022.4 - 0.0 - Cloudy 10 - - - -
22/06:30am 13.0 ESE 12 17 1022.5 - 0.0 - Cloudy 10 - - - -
22/06:00am 13.0 ESE 12 17 1022.4 - 0.0 - Mostly cloudy 10 - - - -
22/05:30am 12.9 ESE 14 20 1022.4 - 0.0 - Cloudy 10 - - - -
22/05:00am 13.0 ESE 13 17 1022.9 - 0.0 - Cloudy 10 - - - -
22/04:30am 13.1 ESE 12 16 1023.3 - 0.0 - Cloudy 10 - - - -
22/04:00am 12.9 ESE 12 17 1023.7 - 0.0 - Cloudy 10 - - - -
22/03:30am 12.9 ESE 12 17 1024.0 - 0.0 - Partly cloudy 10 - - - -
22/03:00am 12.8 ESE 12 16 1024.4 - 0.0 - Cloudy 10 - - - -
22/02:30am 12.7 ESE 14 20 1024.9 - 0.0 - Cloudy 10 - - - -
22/02:00am 12.6 ESE 15 19 1025.5 - 0.0 - Cloudy 10 - - - -
22/01:30am 12.7 E 12 17 1026.3 - 0.0 - Cloudy 10 - - - -
22/01:00am 12.7 E 12 18 1026.7 - 0.0 - Cloudy 10 - - - -
22/12:30am 12.7 E 13 19 1027.1 - 0.0 - Cloudy 10 - - - -
22/12:00am 13.0 E 11 16 1027.5 - 0.0 - Mostly cloudy 10 - - - -
 
Date/Time
EDT
Temp

°C
Wind Pressure Rain
since 9am
mm
Weather Cloud Vis
km
Sea
Height
m
Swell
Dir
 
Speed
knots
Gust
knots
hPa Trend Height
m
Period
s
Dir
21/11:30pm 13.0 E 11 17 1027.7 - 0.0 - Cloudy 10 - - - -
21/11:00pm 12.9 E 11 19 1027.9 - 0.0 - Cloudy 10 - - - -
21/10:30pm 12.6 E 10 16 1028.5 - 0.0 - Partly cloudy 10 - - - -
21/10:00pm 12.5 E 11 16 1028.3 - 0.0 - - 10 - - - -
21/09:30pm 12.4 E 9 15 1028.4 - 0.0 - - 10 - - - -
21/09:00pm 12.6 E 9 15 1028.7 - 0.0 - - 10 - - - -
21/08:30pm 12.5 E 9 14 1028.3 - 0.0 - - 10 - - - -
21/08:00pm 12.6 E 9 13 1028.5 - 0.0 - - 10 - - - -
21/07:30pm 12.9 E 10 19 1028.4 - 0.0 - - 10 - - - -
21/07:00pm 13.4 E 10 15 1028.4 - 0.0 - - 10 - - - -
21/06:30pm 13.8 E 11 18 1028.6 - 0.0 - - 10 - - - -
21/06:00pm 14.3 E 12 19 1028.6 - 0.0 - - 10 - - - -
21/05:30pm 14.6 E 13 19 1028.9 - 0.0 - - 10 - - - -
21/05:00pm 14.7 E 14 20 1029.2 - 0.0 - Cloudy 10 - - - -
21/04:30pm 14.7 E 14 20 1029.3 - 0.0 - Cloudy 10 - - - -
21/04:00pm 15.2 E 14 21 1029.7 - 0.0 - Cloudy 10 - - - -
21/03:30pm 15.3 E 16 23 1030.0 - 0.0 - Partly cloudy 10 - - - -
21/03:00pm 15.2 E 16 24 1030.3 - 0.0 - Partly cloudy 10 - - - -
21/02:30pm 15.5 E 15 23 1030.9 - 0.0 - Partly cloudy 10 - - - -
21/02:00pm 15.3 E 15 21 1031.3 - 0.0 - Cloudy 10 - - - -
21/01:30pm 14.9 E 15 26 1031.6 - 0.0 - - 10 - - - -
21/01:00pm 14.5 E 16 23 1031.9 - 0.0 - Partly cloudy 10 - - - -
21/12:45pm 14.5 E 17 28 1031.9 - 0.0 - Partly cloudy 10 - - - -
21/12:30pm 14.4 E 18 25 1032.0 - 0.0 - Partly cloudy 10 - - - -
21/12:00pm 14.7 E 16 23 1032.2 - 0.0 - - 10 - - - -
21/11:30am 13.9 E 18 25 1032.4 - 0.0 - Partly cloudy 10 - - - -
21/11:00am 14.3 ESE 18 24 1032.8 - 0.0 - Cloudy 10 - - - -
21/10:30am 13.5 ESE 18 25 1033.0 - 0.0 - Cloudy 10 - - - -
21/10:00am 13.2 E 17 24 1033.2 - 0.0 - Cloudy 10 - - - -
21/09:30am 12.8 E 16 21 1033.2 - 0.0 - Cloudy 10 - - - -
21/09:00am 12.6 E 15 21 1033.0 - 0.0 - Mostly cloudy 10 - - - -
21/08:30am 12.4 E 17 22 1033.0 - 0.0 - - 10 - - - -
21/08:00am 12.1 ESE 13 17 1033.0 - 0.0 - Partly cloudy 10 - - - -
21/07:30am 11.6 ESE 15 21 1032.7 - 0.0 - Cloudy 10 - - - -
21/07:00am 11.4 ESE 15 21 1032.6 - 0.0 - Cloudy 10 - - - -
21/06:30am 10.9 E 13 19 1032.3 - 0.0 - Cloudy 10 - - - -
21/06:00am 11.0 ESE 16 22 1031.9 - 0.0 - Cloudy 10 - - - -
21/05:30am 10.7 ESE 14 20 1031.9 - 0.0 - Cloudy 10 - - - -
21/05:00am 10.6 E 14 21 1031.7 - 0.0 - Cloudy 10 - - - -
21/04:30am 10.6 ESE 15 20 1031.6 - 0.0 - Cloudy 10 - - - -
21/04:00am 10.5 ESE 13 18 1032.0 - 0.0 - Cloudy 10 - - - -
21/03:30am 10.5 ESE 12 15 1032.4 - 0.0 - Cloudy 10 - - - -
21/03:00am 10.3 ESE 11 15 1032.8 - 0.0 - Mostly cloudy 10 - - - -
21/02:30am 10.2 ESE 10 14 1032.9 - 0.0 - Partly cloudy 10 - - - -
21/02:00am 11.3 ENE 11 17 1033.2 - 0.0 - Partly cloudy 10 - - - -
21/01:30am 11.3 ENE 11 16 1033.6 - 0.0 - Partly cloudy 10 - - - -

Other Formats:

Comma delimited format used in spreadsheet applications
http://www.bom.gov.au/fwo/IDT60701/IDT60701.95957.axf

JavaScript Object Notation format (JSON) in row-major order
http://www.bom.gov.au/fwo/IDT60701/IDT60701.95957.json